Regional Weather Roundup
Issued by NWS State College, PA

Home | Current Version | Previous Version | Text Only | Print | Product List | Glossary Off
Versions: 1 2 3 4 5 6 7 8 9 10 11 12 13 14 15 16 17 18 19 20 21 22 23 24 25 26 27 28 29 30 31 32 33 34 35 36 37 38 39 40 41 42 43 44 45 46 47 48 49 50

000
ASUS41 KCTP 210210
RWRCTP

REGIONAL WEATHER ROUNDUP
NATIONAL WEATHER SERVICE STATE COLLEGE PA
1000 PM EDT MON APR 20 2015

Note: "fair" indicates few or no clouds below 12,000 feet with no
significant weather and/or obstructions to visibility.

* = STATION THAT DOES NOT REPORT PRECIPITATION /E.G. RAIN...SNOW...ETC/
    THUNDER OR FOG.

PAZ002>004-007>009-013>016-020>023-029>032-210300-
WESTERN PENNSYLVANIA

CITY           SKY/WX    TMP DP  RH WIND       PRES   REMARKS
ERIE           MOCLDY    48  40  73 W21G32    29.56R
MEADVILLE      MOCLDY    52  38  58 W12G29    29.56R
FRANKLIN*      CLOUDY    52  45  76 W10G24    29.58R
NEW CASTLE     FAIR      53  44  71 W10G20    29.60R
BEAVER COUNTY  NOT AVBL
BUTLER*        CLOUDY    54  48  82 NW9G20    29.60R
PITTSBURGH INT CLOUDY    56  46  69 W17       29.59R
PITTSBURGH     MOCLDY    57  46  66 SW9       29.58R
INDIANA*       CLEAR     57  50  77 W10       29.60R
LATROBE        PTCLDY    57  50  77 W7        29.60R
WASHINGTON CO* CLOUDY    54  46  76 W12G32    29.63R
$$

PAZ004>006-010>012-017>019-024>028-033>037-041-042-045-046-049>053-210300-
CENTRAL PENNSYLVANIA

CITY           SKY/WX    TMP DP  RH WIND       PRES   REMARKS
BRADFORD       MOCLDY    51  48  89 SW5       29.53F
DUBOIS         MOCLDY    55  47  74 SW10      29.54R
CLEARFIELD     MOCLDY    57  46  66 SW6       29.55R
JOHNSTOWN      LGT RAIN  54  48  80 SW8       29.58R
ALTOONA        MOCLDY    59  47  64 SW12G20   29.57R
STATE COLLEGE  NOT AVBL
WILLIAMSPORT   TSTM      58  54  86 E8        29.55S
SELINSGROVE    TSTM      57  53  86 W6        29.56R FOG
FT INDIANTOWN  CLOUDY    61  59  91 NE1       29.50F
CAPITAL CITY   MOCLDY    64  52  64 NW13G20   29.57R
HARRISBURG     MOCLDY    61  57  87 W20       29.52R
YORK           PTCLDY    70  60  70 S9        29.50R
$$

PAZ038>040-043-044-047-048-054-055-060>062-067>071-210300-
EASTERN PENNSYLVANIA

CITY           SKY/WX    TMP DP  RH WIND       PRES   REMARKS
SCRANTON       CLOUDY    58  53  84 N9        29.56S
MOUNT POCONO   FOG       52  51  97 E8        29.60F VSB 1/4
ALLENTOWN      LGT RAIN  60  57  89 E9        29.57F FOG
QUAKERTOWN*    CLOUDY    59  59 100 E6        29.57F
READING        CLOUDY    64  59  83 NE5       29.52F
LANCASTER      MOCLDY    64  61  90 SE8       29.50S
COATESVILLE    CLOUDY    66  63  88 SE3       29.54F
POTTSTOWN      MOCLDY    62  61  96 E5        29.56F
BLUE BELL      CLOUDY    66  63  88 E3        29.55F
DOYLESTOWN     CLOUDY    59  59 100 CALM      29.56F FOG
WILLOW GROVE   NOT AVBL
NORTH PHILA    CLOUDY    67  59  75 SE8       29.58F
PHILADELPHIA   CLOUDY    68  61  78 SE7       29.56F
$$


USA.gov is the U.S. government's official web portal to all federal, state and local government web resources and services.